Glenwood, MN

4:43 AM CST on February 22, 2017 (GMT -0600)
Glenwood Municipal

Weather History for KGHW - December, 2013

Change the Weather History Date:

Tuesday, December 3, 2013

  Actual Average Record
Temperature  
Mean Temperature 31 °F -  
Max Temperature 32 °F 28 °F 59 °F (1962)
Min Temperature 30 °F 11 °F -25 °F (1985)
Degree Days  
Heating Degree Days 34    
Moisture  
Dew Point 31 °F    
Average Humidity 98    
Maximum Humidity 100    
Minimum Humidity 93    
Precipitation  
Precipitation 0.00 in - - ()
Sea Level Pressure  
Sea Level Pressure 29.68 in    
Wind  
Wind Speed 8 mph (NE)    
Max Wind Speed 15 mph    
Max Gust Speed 18 mph    
Visibility 2 miles    
Events Fog    
Averages and records for this station are not official NWS values.
T = Trace of Precipitation, MM = Missing Value Source: NWS Daily Summary

Daily Weather History Graph

Daily Weather History Graph

Search for Another Location

Airport or City:

Trip Planner

Search our weather history database for the weather conditions in past years. The results will help you decide how hot, cold, wet, or windy it might be!

Date:

Astronomy

Dec. 03, 2013 Rise Set
Actual Time 7:44 AM CST 4:38 PM CST
Civil Twilight 7:10 AM CST 5:11 PM CST
Nautical Twilight 6:33 AM CST 5:49 PM CST
Astronomical Twilight 5:57 AM CST 6:25 PM CST
Moon 8:13 AM CST (12/3) 5:44 PM CST (12/3)
Length of Visible Light 10h 01m
Length of Day
8h 54m
New Moon, 1% of the Moon is Illuminated
Dec 3
New Moon
Dec 9
First Quarter
Dec 17
Full
Dec 25
Last Quarter
Jan 1
New

Hourly Weather History & Observations

Time (CST) Temp. Windchill Dew Point Humidity Pressure Visibility Wind Dir Wind Speed Gust Speed Precip Events Conditions
12:14 AM 32.0 °F 25.6 °F 32.0 °F 100% 29.57 in 0.8 mi NE 6.9 mph - N/A   Overcast
12:33 AM 32.0 °F 25.6 °F 32.0 °F 100% 29.57 in 1.0 mi NNE 6.9 mph - N/A   Overcast
12:53 AM 32.0 °F 26.4 °F 32.0 °F 100% 29.58 in 1.0 mi NNE 5.8 mph - N/A   Overcast
1:14 AM 32.0 °F 25.6 °F 32.0 °F 100% 29.58 in 1.0 mi NNE 6.9 mph - N/A   Overcast
1:33 AM 32.0 °F 26.4 °F 32.0 °F 100% 29.58 in 1.0 mi NNE 5.8 mph - N/A   Overcast
1:53 AM 32.0 °F 26.4 °F 32.0 °F 100% 29.58 in 1.0 mi NNE 5.8 mph - N/A   Overcast
2:13 AM 32.0 °F 25.6 °F 32.0 °F 100% 29.58 in 1.0 mi NNE 6.9 mph - N/A   Overcast
2:33 AM 32.0 °F 25.6 °F 32.0 °F 100% 29.59 in 1.0 mi NNE 6.9 mph - N/A   Overcast
2:54 AM 32.0 °F 27.5 °F 32.0 °F 100% 29.60 in 0.8 mi NNE 4.6 mph - N/A   Overcast
3:13 AM 32.0 °F 27.5 °F 32.0 °F 100% 29.61 in 0.8 mi NNE 4.6 mph - N/A   Overcast
3:33 AM 32.0 °F 25.6 °F 32.0 °F 100% 29.61 in 0.8 mi North 6.9 mph - N/A   Overcast
3:54 AM 32.0 °F 25.6 °F 32.0 °F 100% 29.61 in 0.8 mi NNE 6.9 mph - N/A   Overcast
4:13 AM 32.0 °F 25.6 °F 32.0 °F 100% 29.61 in 0.8 mi NNE 6.9 mph - N/A   Overcast
4:33 AM 32.0 °F 24.2 °F 32.0 °F 100% 29.61 in 0.8 mi NNE 9.2 mph - N/A   Overcast
4:53 AM 32.0 °F 24.2 °F 32.0 °F 100% 29.61 in 0.8 mi North 9.2 mph - N/A   Overcast
5:13 AM 32.0 °F 23.6 °F 32.0 °F 100% 29.61 in 0.8 mi NNE 10.4 mph - N/A   Overcast
5:33 AM 32.0 °F 23.6 °F 32.0 °F 100% 29.61 in 1.2 mi North 10.4 mph - N/A   Overcast
5:53 AM 32.0 °F 24.8 °F 30.2 °F 93% 29.62 in 0.8 mi NNE 8.1 mph - N/A   Overcast
6:13 AM 32.0 °F 24.2 °F 30.2 °F 93% 29.62 in 0.8 mi NNE 9.2 mph - N/A   Overcast
6:34 AM 32.0 °F 23.6 °F 30.2 °F 93% 29.62 in 0.8 mi NNE 10.4 mph - N/A   Overcast
6:53 AM 32.0 °F 23.6 °F 30.2 °F 93% 29.63 in 1.0 mi NNE 10.4 mph - N/A   Overcast
7:13 AM 32.0 °F 24.2 °F 30.2 °F 93% 29.63 in 1.0 mi NNE 9.2 mph - N/A   Overcast
7:33 AM 30.2 °F 21.9 °F 30.2 °F 100% 29.64 in 1.0 mi NNE 9.2 mph - N/A   Overcast
7:53 AM 30.2 °F 22.6 °F 30.2 °F 100% 29.65 in 1.0 mi NNE 8.1 mph - N/A   Overcast
8:13 AM 30.2 °F 22.6 °F 30.2 °F 100% 29.65 in 0.8 mi NNE 8.1 mph - N/A   Overcast
8:33 AM 30.2 °F 22.6 °F 30.2 °F 100% 29.66 in 0.5 mi NNE 8.1 mph - N/A Fog Light Freezing Fog
8:53 AM 30.2 °F 21.9 °F 30.2 °F 100% 29.66 in 0.5 mi NNE 9.2 mph - N/A Fog Light Freezing Fog
9:14 AM 30.2 °F 22.6 °F 30.2 °F 100% 29.67 in 0.2 mi NNE 8.1 mph - N/A Fog Light Freezing Fog
9:33 AM 30.2 °F 21.9 °F 30.2 °F 100% 29.68 in 0.2 mi NNE 9.2 mph - N/A Fog Light Freezing Fog
9:53 AM 30.2 °F 21.3 °F 30.2 °F 100% 29.68 in 0.2 mi North 10.4 mph - N/A Fog Light Freezing Fog
10:14 AM 30.2 °F 21.9 °F 30.2 °F 100% 29.69 in 0.2 mi NNE 9.2 mph - N/A Fog Light Freezing Fog
10:33 AM 30.2 °F 21.3 °F 30.2 °F 100% 29.70 in 0.2 mi NNE 10.4 mph - N/A Fog Light Freezing Fog
10:53 AM 30.2 °F 21.3 °F 30.2 °F 100% 29.70 in 0.5 mi NNE 10.4 mph - N/A Fog Light Freezing Fog
11:13 AM 30.2 °F 22.6 °F 30.2 °F 100% 29.69 in 0.5 mi NNE 8.1 mph - N/A Fog Light Freezing Fog
11:33 AM 30.2 °F 20.8 °F 30.2 °F 100% 29.69 in 0.5 mi NE 11.5 mph - N/A Fog Light Freezing Fog
11:53 AM 30.2 °F 20.8 °F 30.2 °F 100% 29.68 in 0.5 mi NNE 11.5 mph - N/A Fog Light Freezing Fog
12:13 PM 30.2 °F 21.3 °F 30.2 °F 100% 29.69 in 0.5 mi NNE 10.4 mph - N/A Fog Light Freezing Fog
12:34 PM 30.2 °F 21.3 °F 30.2 °F 100% 29.69 in 0.5 mi NNE 10.4 mph - N/A Fog Light Freezing Fog
12:53 PM 30.2 °F 21.9 °F 30.2 °F 100% 29.69 in 0.8 mi NE 9.2 mph - N/A   Overcast
1:14 PM 30.2 °F 22.6 °F 30.2 °F 100% 29.69 in 0.8 mi NNE 8.1 mph - N/A   Overcast
1:33 PM 30.2 °F 22.6 °F 30.2 °F 100% 29.68 in 1.0 mi NNE 8.1 mph - N/A   Overcast
1:53 PM 30.2 °F 21.9 °F 30.2 °F 100% 29.69 in 1.5 mi NNE 9.2 mph - N/A   Overcast
2:13 PM 30.2 °F 20.8 °F 30.2 °F 100% 29.68 in 1.5 mi NNE 11.5 mph - N/A   Overcast
2:33 PM 30.2 °F 22.6 °F 30.2 °F 100% 29.69 in 1.5 mi NE 8.1 mph - N/A   Overcast
2:53 PM 32.0 °F 23.6 °F 30.2 °F 93% 29.68 in 2.0 mi NE 10.4 mph - N/A   Overcast
3:13 PM 30.2 °F 21.3 °F 30.2 °F 100% 29.69 in 2.0 mi NNE 10.4 mph - N/A   Overcast
3:33 PM 32.0 °F 24.2 °F 30.2 °F 93% 29.70 in 2.0 mi NNE 9.2 mph - N/A   Overcast
3:54 PM 32.0 °F 26.4 °F 30.2 °F 93% 29.71 in 2.5 mi NNE 5.8 mph - N/A   Overcast
4:13 PM 32.0 °F 24.8 °F 30.2 °F 93% 29.72 in 2.0 mi NNE 8.1 mph - N/A   Overcast
4:33 PM 32.0 °F 24.8 °F 30.2 °F 93% 29.72 in 3.0 mi NNE 8.1 mph - N/A   Overcast
4:53 PM 32.0 °F 25.6 °F 30.2 °F 93% 29.73 in 3.0 mi NNE 6.9 mph - N/A   Overcast
5:13 PM 32.0 °F 24.8 °F 32.0 °F 100% 29.73 in 3.0 mi NNE 8.1 mph - N/A   Overcast
5:33 PM 32.0 °F 24.8 °F 32.0 °F 100% 29.74 in 3.0 mi NNE 8.1 mph - N/A   Overcast
5:53 PM 32.0 °F 24.8 °F 32.0 °F 100% 29.75 in 3.0 mi NNE 8.1 mph - N/A   Overcast
6:13 PM 32.0 °F 24.8 °F 32.0 °F 100% 29.75 in 2.5 mi NNE 8.1 mph - N/A   Overcast
6:34 PM 32.0 °F 24.8 °F 32.0 °F 100% 29.75 in 2.5 mi NE 8.1 mph - N/A   Overcast
6:53 PM 32.0 °F 24.8 °F 32.0 °F 100% 29.74 in 3.0 mi ENE 8.1 mph - N/A   Overcast
7:13 PM 32.0 °F 24.2 °F 32.0 °F 100% 29.75 in 3.0 mi ENE 9.2 mph - N/A   Overcast
7:33 PM 32.0 °F 23.6 °F 32.0 °F 100% 29.73 in 4.0 mi ENE 10.4 mph - N/A   Overcast
7:53 PM 32.0 °F 23.0 °F 32.0 °F 100% 29.72 in 5.0 mi ENE 11.5 mph 18.4 mph N/A   Overcast
8:13 PM 32.0 °F 24.2 °F 30.2 °F 93% 29.75 in 7.0 mi ENE 9.2 mph - N/A   Overcast
8:33 PM 32.0 °F 24.2 °F 30.2 °F 93% 29.76 in 7.0 mi ENE 9.2 mph - N/A   Overcast
8:53 PM 32.0 °F 24.2 °F 30.2 °F 93% 29.77 in 10.0 mi ENE 9.2 mph - N/A   Overcast
9:13 PM 32.0 °F 24.8 °F 30.2 °F 93% 29.75 in 7.0 mi ENE 8.1 mph - N/A   Overcast
9:33 PM 32.0 °F 24.2 °F 30.2 °F 93% 29.78 in 7.0 mi East 9.2 mph - N/A   Overcast
9:53 PM 32.0 °F 24.2 °F 30.2 °F 93% 29.78 in 5.0 mi ENE 9.2 mph - N/A   Overcast
10:13 PM 32.0 °F 24.2 °F 30.2 °F 93% 29.77 in 4.0 mi ENE 9.2 mph - N/A   Overcast
10:33 PM 30.2 °F 21.3 °F 30.2 °F 100% 29.76 in 4.0 mi ENE 10.4 mph - N/A   Overcast
10:53 PM 30.2 °F 21.3 °F 30.2 °F 100% 29.75 in 4.0 mi ENE 10.4 mph - N/A   Overcast
11:13 PM 30.2 °F 21.3 °F 30.2 °F 100% 29.75 in 5.0 mi ENE 10.4 mph - N/A   Overcast
11:33 PM 30.2 °F 20.2 °F 30.2 °F 100% 29.76 in 4.0 mi ENE 12.7 mph - N/A   Overcast
11:53 PM 30.2 °F 19.3 °F 28.4 °F 93% 29.76 in 5.0 mi ENE 15.0 mph - N/A   Overcast